Regional Weather Roundup
Issued by NWS

Home | Current Version | Previous Version | Text Only | Print | Product List | Glossary On
Versions: 1 2 3 4 5 6 7 8 9 10 11 12 13 14 15 16 17 18 19 20 21 22 23 24 25 26 27 28
000
ASUS42 KTBW 262117
RWRFL
FLORIDA REGIONAL WEATHER ROUNDUP
NATIONAL WEATHER SERVICE TAMPA BAY RUSKIN FL
500 PM EDT WED JUL 26 2017

NOTE: "FAIR" INDICATES FEW OR NO CLOUDS BELOW 12,000 FEET WITH NO
SIGNIFICANT WEATHER AND/OR OBSTRUCTIONS TO VISIBILITY.

FLZ001>010-012>015-112-114-115-262200-
PANHANDLE FLORIDA

CITY           SKY/WX    TMP DP  RH WIND       PRES   REMARKS
PENSACOLA      CLOUDY    92  78  63 S10       30.04F HX 107
PENSACOLA NAS  HVY RAIN  85  78  80 SW12      30.04F HX  96
MILTON NAS     PTSUNNY   89  78  70 CALM      30.04  HX 103
CRESTVIEW      MOSUNNY   95  73  48 VRB6      30.04F HX 104
DUKE FIELD     MOSUNNY   94  72  48 NW8       30.02F HX 101
VALPARAISO     MOSUNNY   90  76  64 SW14      30.02F HX 101
MARY ESTHER    MOSUNNY   88  80  77 S15       30.03F HX 105
PANAMA CITY    FAIR      91  75  59 VRB3      30.01F HX 101
TYNDALL AFB    SUNNY     89  77  67 W14       30.02F HX 100
APALACHICOLA   RAIN      83  79  88 SW8       30.03F FOG

STATION/POSITION SKY/WX   TEMP    WIND        PRES    WAVE   SWELL
                          AIR SEA DIR/SP/G            HT/PER HT/PER
                          (F)     (DEG/KT/KT) (MB)    (FT/S) (FT/S)
30.1N   87.6W              83 87  270/ 10/ 10 1017.5F   1
29.2N   88.2W              84 86   10/  4/  6 1018.3
28.8N   86.0W              84 87  310/  4/  6 1017.3F   1/ 4   2/ 7
PANAMA CITY BEAC           85     250/ 10/ 11 1017.1F
TOWER C          NOT AVBL
28.5N   84.5W              84 87  250/ 10/ 12 1016.9F   2/ 5   2/ 5

$$
FLZ011-016>038-118-127-128-134-139-239-262200-
NORTH FLORIDA

CITY           SKY/WX    TMP DP  RH WIND       PRES   REMARKS
MARIANNA       MOSUNNY   93  74  53 CALM      30.01F HX 103
TALLAHASSEE    PTSUNNY   93  72  50 VRB3      30.01F HX 101
PERRY          MOSUNNY   90  74  59 SW9       30.02F HX  99
LIVE OAK       CLOUDY    90  75  62 VRB3      30.02F HX 100
CROSS CITY     SUNNY     91  74  56 SW9       30.06F HX 100
LAKE CITY      FAIR      90  72  55 W10       30.01F HX  96
GAINESVILLE    SUNNY     92  69  47 SW10      30.03F HX  97
WILLISTON      SUNNY     93  75  55 S10       30.02F HX 104
PALATKA        FAIR      91  73  55 W8        30.01F HX 100
MAYPORT NAS    PTSUNNY   87  77  72 E12       30.02F HX  99
JACKSONVILLE   PTSUNNY   82  77  84 N14       30.03R
JAX NAS        PTSUNNY   95  67  39 SW8G16    30.01F HX  99
JAX CECIL      MOSUNNY   93  70  46 SW5       30.00F HX  99
FERNANDINA BEA CLOUDY    81  77  89 NE12      30.02S THUNDER
ST AUGUSTINE   LGT RAIN  84  78  82 SE9       30.03S HX  95
PALM COAST     MOSUNNY   90  75  62 SE12      30.02  HX 100

STATION/POSITION SKY/WX   TEMP    WIND        PRES    WAVE   SWELL
                          AIR SEA DIR/SP/G            HT/PER HT/PER
                          (F)     (DEG/KT/KT) (MB)    (FT/S) (FT/S)
SHELL POINT      NOT AVBL
KEATON BEACH               85     220/  8/  9 1016.4F
CEDAR KEY                  87     240/  5/  8 1017.3F
FERNANDINA                 78 83   10/  6/  9 1018.1F
30.7N   81.3W                 79                N/A     2/10
MAYPORT                    83 81  100/ 12/ 15 1017.0F
31.4N   80.9W              80 81   80/ 10/ 12 1017.3F   3/ 5   2/ 9
ST AUGUSTINE               80 78  140/ 10/ 11 1016.7F

$$
FLZ040-043>046-052-053-057-058-063-144-262200-
INTERIOR CENTRAL FLORIDA

CITY           SKY/WX    TMP DP  RH WIND       PRES   REMARKS
OCALA          MOSUNNY   92  73  53 W8        30.03F HX 100
THE VILLAGES     N/A     93  77  59 MISG      29.92F HX 107
LEESBURG       SUNNY     94  71  47 SW7       30.03F HX 101
SANFORD        CLOUDY    94  70  45 W3        30.01F HX 100
ORLANDO EXEC   CLOUDY    93  74  53 VRB5      30.02F HX 103
ORLANDO INTL   CLOUDY    92  73  53 S3        30.02F THUNDER HX 100
KISSIMMEE      CLOUDY    93  74  53 CALM      30.03F HX 103
WINTER HAVEN   MOSUNNY   95  70  44 NW8       30.02F HX 101
LAKELAND       MOSUNNY   93  72  49 CALM      30.02F HX 100
BARTOW         MOSUNNY   93  70  46 NW5       30.02F HX  99
SEBRING        FAIR      97  70  41 SE5       30.01F HX 103
OKEECHOBEE     CLOUDY    91  73  55 SE8       30.03F HX 100

$$
FLZ041-047-054-059-064-141-147-262200-
EAST CENTRAL FLORIDA

CITY           SKY/WX    TMP DP  RH WIND       PRES   REMARKS
ORMOND BEACH   MOSUNNY   88  75  66 SE9       30.03F HX  97
DAYTONA BEACH  PTSUNNY   88  75  65 E9        30.03F HX  97
DELAND         MOSUNNY   95  68  41 S12       30.01F HX  99
NEW SMYRNA BEA MOSUNNY   90  75  62 SE15      30.05F HX 100
JFK SPACE CTR  CLOUDY    85  79  82 W5        30.04R HX  97
TITUSVILLE     PTSUNNY   82  72  69 VRB7      30.06
CAPE CANAVERAL CLOUDY    86  79  79 SE7       30.02F HX  99
PATRICK AFB    MOSUNNY   84  79  84 SE9       30.03F HX  97
MELBOURNE      CLOUDY    88  75  65 E15       30.02F HX  97
VERO BEACH     SUNNY     90  77  65 SE16      30.03F HX 103
FT PIERCE      SUNNY     89  76  65 SE14      30.03F HX 100
STUART         MOSUNNY   91  81  70 E14       30.05F HX 110

STATION/POSITION SKY/WX   TEMP    WIND        PRES    WAVE   SWELL
                          AIR SEA DIR/SP/G            HT/PER HT/PER
                          (F)     (DEG/KT/KT) (MB)    (FT/S) (FT/S)
28.5N   80.2W              85 85  120/  8/  8 1018.6F   1/ 8   2/ 8
28.9N   78.5W              85 85  170/  4/  4 1017.8F   2/10   2/10
TRIDENT PIER               84 83   30/  2/  4 1019.0F
28.4N   80.5W                 82                N/A     1/ 9
27.5N   80.2W                 82                N/A     1/ 8

$$
FLZ050-056-061-142-242-148-248-149-249-151-251-155-255-
160-260-262200-
WEST CENTRAL FLORIDA

CITY           SKY/WX    TMP DP  RH WIND       PRES   REMARKS
CRYSTAL RIVER  FAIR      90  73  58 W6        30.03F HX  98
INVERNESS      FAIR      91  73  55 CALM      30.03F HX 100
BROOKSVILLE    SUNNY     92  73  53 NW10      30.04F HX 100
CLEARWATER AIR FAIR      88  73  62 W7        30.03F HX  96
ST PETE CLEARW MOSUNNY   92  73  53 NW10      30.02F HX 100
TAMPA INTL     PTSUNNY   92  73  53 W10       30.02F HX 100
TAMPA EXEC     SUNNY     97  73  46 NW7       30.02F HX 107
PLANT CITY     SUNNY     97  72  44 SW6       30.04F HX 105
MACDILL AFB    SUNNY     93  75  55 NW8       30.02F HX 104
PETER O KNIGHT MOSUNNY   95  75  52 W7        30.02F HX 107
ST PETERSBURG  SUNNY     94  70  45 CALM      30.01F HX 100
SARASOTA       SUNNY     91  71  51 W13       30.01F HX  97
VENICE         FAIR      90  77  66 NW13      30.03F HX 102

STATION/POSITION SKY/WX   TEMP    WIND        PRES    WAVE   SWELL
                          AIR SEA DIR/SP/G            HT/PER HT/PER
                          (F)     (DEG/KT/KT) (MB)    (FT/S) (FT/S)
27.3N   84.2W                 89                N/A     1/ 6
CLEARWATER BEACH           87 89  310/  8/  9 1017.3F
MIDDLE TAMPA BAY           87     290/  9/ 10 1017.1F
VENICE                     87 89  310/ 12/ 13 1017.3F

$$
FLZ066-069-070-075>078-162-262-165-265-262200-
SOUTHWEST FLORIDA AND KEYS

CITY           SKY/WX    TMP DP  RH WIND       PRES   REMARKS
PUNTA GORDA    PTSUNNY   95  73  48 CALM      30.02F HX 104
FT MYERS       MOSUNNY   94  77  57 NW9       30.00F HX 108
SOUTHWEST INTL SUNNY     94  71  47 CALM      30.01F HX 101
NAPLES         TSTM      78  75  90 SE9       30.04R
MARCO ISLAND   CLOUDY    79  72  78 W6        30.04F
IMMOKALEE      FAIR      95  73  49 VRB3      30.03S HX 105
MARATHON       MOSUNNY   90  78  68 VRB7      30.03F HX 104
KEY WEST NAS   PTSUNNY   88  79  74 E9        30.03F HX 103
KEY WEST INTL  MOSUNNY   89  77  67 SE9       30.03F HX 101

STATION/POSITION SKY/WX   TEMP    WIND        PRES    WAVE   SWELL
                          AIR SEA DIR/SP/G            HT/PER HT/PER
                          (F)     (DEG/KT/KT) (MB)    (FT/S) (FT/S)
NAPLES                        90  120/  3/  9 1017.6R
DRY TORTUGAS               86      60/ 11/ 12 1016.7F
SAND KEY                   85                 1017.6F
MOLASSES REEF              85 87  100/  9/ 10 1017.6F

$$
FLZ067-068-071>074-168-172>174-262200-
SOUTHEAST FLORIDA

CITY           SKY/WX    TMP DP  RH WIND       PRES   REMARKS
W PALM BEACH   MOSUNNY   90  74  59 SE10G18   30.05S HX  99
BOCA RATON     MOSUNNY   90  77  66 SE9       30.04F HX 102
FT LAUDER-EXEC MOSUNNY   90  72  55 E12       30.03F HX  97
FT LAUDERDALE  MOSUNNY   89  75  63 SE9G17    30.03F HX  99
POMPANO BEACH  MOSUNNY   90  78  68 SE8       30.04F HX 104
PEMBROKE PINES MOSUNNY   92  75  57 E9        30.05S HX 103
OPA LOCKA      SUNNY     91  76  61 E8        30.04F HX 103
MIAMI          MOSUNNY   91  74  57 SE5       30.04F HX 100
WEST KENDALL   SUNNY     90  74  59 E7        30.03F HX  99
HOMESTEAD      SUNNY     89  80  73 E7        30.03F HX 106

STATION/POSITION SKY/WX   TEMP    WIND        PRES    WAVE   SWELL
                          AIR SEA DIR/SP/G            HT/PER HT/PER
                          (F)     (DEG/KT/KT) (MB)    (FT/S) (FT/S)
PORT EVERGLADES            88     100/  4/  9 1017.3F
VIRGINIA KEY                       90/  6/  9   N/A
LAKE WORTH                        130/  7/  9   N/A
FOWEY ROCKS                85 87   90/  4/  5 1018.1F
SETTLEMENT POINT           86     200/  3/  4 1017.7F

$$



USA.gov is the U.S. government's official web portal to all federal, state and local government web resources and services.